Regional Weather Roundup
Issued by NWS

Home | Current Version | Previous Version | Text Only | Print | Product List | Glossary On
Versions: 1 2 3 4 5 6 7 8 9 10 11 12 13 14 15 16 17 18 19 20 21 22 23 24 25 26 27 28 29 30 31 32 33 34 35 36 37 38 39 40 41 42 43 44 45 46 47 48 49 50
000
ASUS43 KDTX 261810
RWRMI
MICHIGAN HOURLY REGIONAL WEATHER ROUNDUP
NATIONAL WEATHER SERVICE DETROIT/PONTIAC MI
200 PM EDT TUE JUL 26 2016

NOTE: "FAIR" INDICATES FEW OR NO CLOUDS BELOW 12,000 FEET WITH NO
SIGNIFICANT WEATHER AND/OR OBSTRUCTION TO VISIBILITY.

MIZ047>049-052>055-059>063-066>070-074>076-081>083-261900-
SOUTHEAST LOWER MICHIGAN

CITY           SKY/WX    TMP DP  RH WIND       PRES   REMARKS
ADRIAN         PTSUNNY   84  57  39 S8        30.07F
6HR MIN TEMP:  67; 6HR MAX TEMP:  85;

ALMA           MOSUNNY   86  59  39 W3G20     30.03F
ANN ARBOR      PTSUNNY   86  59  39 VRB3      30.04F
BAD AXE        PTSUNNY   81  58  45 MISG      30.04S
CARO           MOSUNNY   85  61  43 SW3       30.02F
DETROIT CITY   MOSUNNY   83  62  49 S8        30.04F
6HR MIN TEMP:  71; 6HR MAX TEMP:  85;

DETROIT        PTSUNNY   85  56  37 CALM      30.05F
6HR MIN TEMP:  71; 6HR MAX TEMP:  87;

FLINT          MOSUNNY   86  59  39 W5        30.04F
6HR MIN TEMP:  68; 6HR MAX TEMP:  89;

GROSSE ILE     SUNNY     79  67  66 S10       30.05S
6HR MIN TEMP:  72; 6HR MAX TEMP:  80;

HOWELL         MOSUNNY   83  56  39 NW5       30.06F
6HR MIN TEMP:  67; 6HR MAX TEMP:  84;


CITY           SKY/WX    TMP DP  RH WIND       PRES   REMARKS
JACKSON        PTSUNNY   81  58  45 CALM      30.07F
6HR MIN TEMP:  67; 6HR MAX TEMP:  82;

LAMBERTVILLE   SUNNY     83  58  42 E5        30.07S
6HR MIN TEMP:  69; 6HR MAX TEMP:  83;

LANSING        SUNNY     85  61  44 W6        30.05F
6HR MIN TEMP:  68; 6HR MAX TEMP:  85;

LAPEER         FAIR      85  57  38 W6        30.04F
6HR MIN TEMP:  64; 6HR MAX TEMP:  86;

MASON          PTSUNNY   84  61  44 S5        30.06F
MONROE         SUNNY     81  67  63 SE6       30.05F
6HR MIN TEMP:  67; 6HR MAX TEMP:  81;

MT. CLEMENS    MOSUNNY   81  65  57 E8        30.03F
6HR MIN TEMP:  69; 6HR MAX TEMP:  82;

PONTIAC        MOSUNNY   84  59  42 N5        30.05F
6HR MIN TEMP:  69; 6HR MAX TEMP:  84;

PORT HURON     PTSUNNY   82  63  51 SW3       30.04F
TRI CITIES     MOSUNNY   85  63  47 W13G21    30.03F
6HR MIN TEMP:  67; 6HR MAX TEMP:  85;

MIDLAND        FAIR      85  61  45 NW7       30.02S
TROY           MOSUNNY   85  52  32 NW7       30.06F
SAGINAW HB     MOSUNNY   86  59  39 W8        30.02F
$$
MIZ043>046-050>051-056>058-064>065-071>073-077>080-261900-
SOUTHWEST LOWER MICHIGAN

CITY           SKY/WX    TMP DP  RH WIND       PRES   REMARKS
BATTLE CREEK   PTSUNNY   80  63  55 CALM      30.07F
BENTON HARBOR  SUNNY     82  61  48 NW7       30.06F
6HR MIN TEMP:  68; 6HR MAX TEMP:  83;

BIG RAPIDS     MOSUNNY   83  57  40 NW6       30.04F
6HR MIN TEMP:  64; 6HR MAX TEMP:  83;

COLDWATER      PTSUNNY   82  61  48 CALM      30.07F
6HR MIN TEMP:  67; 6HR MAX TEMP:  82;

FREMONT        FAIR      84  56  39 NE6       30.04F
HOLLAND          N/A     83  65  54 W8        30.05F
6HR MIN TEMP:  69; 6HR MAX TEMP:  84;

GRAND RAPIDS   MOSUNNY   84  61  45 CALM      30.04F
6HR MIN TEMP:  70; 6HR MAX TEMP:  85;

IONIA          FAIR      83  59  44 W5        30.04F
6HR MIN TEMP:  65; 6HR MAX TEMP:  85;

KALAMAZOO      PTSUNNY   83  61  47 S5        30.06F
6HR MIN TEMP:  67; 6HR MAX TEMP:  84;

LUDINGTON      SUNNY     82  64  55 SW7       30.04S
6HR MIN TEMP:  66; 6HR MAX TEMP:  82;

MARSHALL       PTSUNNY   84  60  43 SW3       30.06F
6HR MIN TEMP:  66; 6HR MAX TEMP:  84;

MOUNT PLEASANT SUNNY     86  57  38 W6        30.02F
6HR MIN TEMP:  67; 6HR MAX TEMP:  86;

MUSKEGON       MOSUNNY   84  65  52 W9        30.04F
6HR MIN TEMP:  72; 6HR MAX TEMP:  85;

SOUTH HAVEN    SUNNY     82  64  53 NW7       30.05F
$$
MIZ016>042-261900-
NORTHERN LOWER MICHIGAN

CITY           SKY/WX    TMP DP  RH WIND       PRES   REMARKS
ALPENA         MOSUNNY   87  53  31 SW6       29.99F
6HR MIN TEMP:  67; 6HR MAX TEMP:  88;

BEAVER ISLAND  SUNNY     78  65  63 SW12      30.00F
6HR MIN TEMP:  70; 6HR MAX TEMP:  80;

BELLAIRE       SUNNY     85  58  39 SW5       30.01F
6HR MIN TEMP:  62; 6HR MAX TEMP:  85;

CADILLAC       SUNNY     83  58  43 SW6       30.05S
CHARLEVOIX     SUNNY     85  60  42 W13G22    30.03F
FRANKFORT      SUNNY     80  62  55 SW6       30.04S
GAYLORD        MOSUNNY   83  56  39 VRB6      30.03F
6HR MIN TEMP:  63; 6HR MAX TEMP:  83;

GRAYLING       MOSUNNY   86  57  37 W8        30.03F
HARBOR SPRINGS SUNNY     82  60  47 W6        30.00F
HOUGHTON LAKE  SUNNY     82  58  43 VRB6      30.04F
6HR MIN TEMP:  62; 6HR MAX TEMP:  83;

MANISTEE       SUNNY     85  59  41 W12       30.03S
OSCODA         CLOUDY    81  59  47 SE12      30.00S
6HR MIN TEMP:  67; 6HR MAX TEMP:  83;

ROGERS CITY    MOSUNNY   80  63  55 NE7       29.99F
TRAVERSE CITY  MOSUNNY   87  58  37 NE8       29.99F
6HR MIN TEMP:  68; 6HR MAX TEMP:  88;

$$
MIZ007>008-015-261900-
EASTERN UPPER MICHIGAN

CITY           SKY/WX    TMP DP  RH WIND       PRES   REMARKS
KINROSS        CLOUDY    84  64  50 SW9       29.97F
6HR MIN TEMP:  64; 6HR MAX TEMP:  84;

MACKINAC ISLAN SUNNY     77  63  61 SW12G17   29.99F
6HR MIN TEMP:  69; 6HR MAX TEMP:  77;

NEWBERRY       MOSUNNY   84  61  45 SW10      29.97F
S. S. MARIE    SUNNY     84  62  47 VRB3      29.96F
6HR MIN TEMP:  64; 6HR MAX TEMP:  84;

$$
MIZ004>006-011>014-085-261900-
CENTRAL UPPER MICHIGAN

CITY           SKY/WX    TMP DP  RH WIND       PRES   REMARKS
MANISTIQUE     SUNNY     78  68  69 S8        29.97F
6HR MIN TEMP:  70; 6HR MAX TEMP:  80;

ESCANABA       SUNNY     81  68  65 S14       29.96F
6HR MIN TEMP:  64; 6HR MAX TEMP:  82;

MENOMINEE      MOSUNNY  N/A N/A N/A VRB7      29.99
SAWYER-GWINN   MOSUNNY   84  63  48 W9G18     29.98F
$$
MIZ001>003-009>011-084-261900-
WESTERN UPPER MICHIGAN

CITY           SKY/WX    TMP DP  RH WIND       PRES   REMARKS
IRON MOUNTAIN  MOSUNNY   88  63  43 W9        29.98F
6HR MIN TEMP:  65; 6HR MAX TEMP:  88;

HOUGHTON       MOSUNNY   83  65  54 W10       29.93F
6HR MIN TEMP:  70; 6HR MAX TEMP:  85;

COPPER HARBOR    N/A     72  64  76 N8        29.92F
6HR MIN TEMP:  71; 6HR MAX TEMP:  79;

IRONWOOD       MOSUNNY  N/A N/A N/A W13       29.93F
6HR MIN TEMP:  64; 6HR MAX TEMP:  84;

$$

ABBREVIATIONS USED IN REMARKS
   TC - TEMPERATURE IN CELSIUS
  WCI - WIND CHILL INDEX
   HX - HEAT INDEX
  VSB - VISIBILITY





USA.gov is the U.S. government's official web portal to all federal, state and local government web resources and services.